Location: Peebles
(55.6412°N, 3.1714°W)
Time: 21:14:49
(UTC+00:00)

deb Agena D - Pass Details

Date: 28 September 2023
Orbit: 794 x 979 km, 99.8° (Epoch: 28 November)

Event Time Altitude Azimuth Distance (km) Brightness Sun altitude
Rises 23:21:00 0° 27° (NNE) 3,692 9.9 -32.7°
Reaches altitude 10° 23:25:11 10° 54° (NE) 2,722 8.9 -33.0°
Enters shadow 23:25:32 11° 57° (ENE) 2,668 8.8 -33.0°
